Regional Weather Roundup
Issued by NWS Albany, NY

Home | Current Version | Previous Version | Text Only | Print | Product List | Glossary On
Versions: 1 2 3 4 5 6 7 8 9 10 11 12 13 14 15 16 17 18 19 20 21 22 23 24 25 26 27 28
000
ASUS41 KALY 221810
RWRALY

NEW YORK STATE HOURLY WEATHER ROUNDUP
NATIONAL WEATHER SERVICE ALBANY NY
200 PM EDT THU JUN 22 2017

NOTE: "FAIR" INDICATES FEW OR NO CLOUDS BELOW 12,000 FEET WITH NO
SIGNIFICANT WEATHER AND/OR NO OBSTRUCTIONS TO VISIBILITY.

NYZ032-033-038>043-046>054-057>066-NYZ062>081-082-084-221900-
EAST


CITY           SKY/WX    TMP DP  RH WIND       PRES   REMARKS
ALBANY         PTSUNNY   80  55  42 W9        29.94F
GLENS FALLS    CLOUDY    77  56  48 S9        29.92F
POUGHKEEPSIE   SUNNY     79  56  45 MISG      29.94F
NEWBURGH       MOSUNNY   79  63  57 SW14      29.98F
MONTGOMERY     MOSUNNY   81  61  50 SW13      29.95F
WHITE PLAINS   MOSUNNY   79  57  47 S10       29.97F
ISLIP          MOSUNNY   77  57  50 S9G17     29.99S
NEW YORK CITY  CLOUDY    83  55  38 S14G20    29.96F
CENTRAL PARK   MOSUNNY   81  58  45 MISG      29.99F
$$

NYZ005>009-017-018-044>046-055-056-221900-
CENTRAL


CITY           SKY/WX    TMP DP  RH WIND       PRES   REMARKS
FULTON         CLOUDY    73  57  57 SW3       29.94F
SYRACUSE       CLOUDY    73  54  51 W10       29.93F
ROME           PTSUNNY   74  58  57 NW7       29.95F
ELMIRA         SUNNY     81  63  54 W7        29.95F
BINGHAMTON     MOSUNNY   75  57  53 SW14      29.99F
MONTICELLO     SUNNY     79  57  47 W13G20    30.01F
$$

NYZ026>034-041>043-087-221900-
NORTH


CITY           SKY/WX    TMP DP  RH WIND       PRES   REMARKS
WATERTOWN      PTSUNNY   72  60  66 W7        29.93F
FORT DRUM      NOT AVBL
OGDENSBURG     FAIR      72  56  57 SW9       29.92F
MASSENA        CLOUDY    74  49  41 SW12      29.92F
SARANAC LAKE   CLOUDY    71  49  45 W10       29.95F
PLATTSBURGH    MOSUNNY   77  55  46 SE8       29.89F
$$

NYZ001>004-010>016-019>021-085-221900-
WEST


CITY           SKY/WX    TMP DP  RH WIND       PRES   REMARKS
NIAGARA FALLS  CLOUDY    69  57  65 S12       29.90F
BUFFALO        CLOUDY    69  56  62 S7        29.93F
DUNKIRK        CLOUDY    69  64  84 SE5       29.93F
JAMESTOWN      CLOUDY    66  63  88 SW5       29.99F THUNDER
WELLSVILLE     PTSUNNY   78  59  51 W7        30.03S
ROCHESTER      CLOUDY    74  59  59 S5        29.92F
PENN YAN       MOSUNNY   78  50  37 W9        29.96F
$$

             KEY
       WCI = WIND CHILL INDEX
       VSB = VISIBILITY
       HX  = HEAT INDEX
$$




USA.gov is the U.S. government's official web portal to all federal, state and local government web resources and services.